Flag for Germany Weather past 2 weeks in Sankt Ingbert, Saarland, Germany

Now
83 °F

Scattered clouds.


Feels Like: 81 °F
Forecast: 59 / 87 °F
Wind: 3 mph from Southeast

Location: Saarbruecken / Ensheim

Current Time: Aug 2, 2015 at 6:36:54 PM

Latest Report: Aug 2, 2015 at 6:00 PM


Visibility: 31 mi

Pressure: 30.01 "Hg

Humidity: 27%

Dew point: 45 °F

Location of Sankt IngbertLocation

Historic Weather in Sankt Ingbert — Graph

°F

Sankt Ingbert temperature yesterday

Maximum temperature yesterday: 77 °F (at 6:00 PM)
Minimum temperature yesterday: 56 °F (at 7:00 AM)
Average temperature yesterday: 67 °F

Past Weeks' High & Low Weather Summary

 TemperatureHumidityPressure
High88 °F (Jul 21, 6:00 PM)97% (Jul 25, 4:00 AM)30.14 "Hg (Jul 25, 4:00 AM)
Low44 °F (Jul 31, 4:00 AM)25% (Aug 2, 4:00 PM)29.65 "Hg (Jul 24, 8:00 PM)
Average66 °F64%29.92 "Hg
* Reported Jul 18 5:00 PM — Aug 2 5:00 PM, Sankt Ingbert, Weather by CustomWeather, © 2015

Note: Actual official high and low records may vary slightly from our data, if they occured in-between our weather recording intervals... More about our weather records

Advertising

Sankt Ingbert weather history for previous 24 hours

 ConditionsComfort  
Time TempWeatherWind HumidityBarometerVisibility
5:00 PM
Sun, Aug 2
83 °FPassing clouds.3 mph27%30.01 "Hg31 mi
4:00 PM83 °FPassing clouds.3 mph25%30.03 "Hg31 mi
3:00 PM81 °FPassing clouds.2 mph27%30.04 "Hg31 mi
2:00 PM80 °FPassing clouds.3 mph28%30.06 "Hg31 mi
1:00 PM77 °FPassing clouds.2 mph33%30.08 "Hg31 mi
12:00 PM75 °FPassing clouds.2 mph42%30.09 "Hg31 mi
11:00 AM71 °FPassing clouds.3 mph46%30.09 "Hg31 mi
10:00 AM69 °FPassing clouds.5 mph52%30.09 "Hg28 mi
9:00 AM66 °FPassing clouds.1 mph64%30.11 "Hg28 mi
8:00 AM60 °FPassing clouds.1 mph83%30.11 "Hg28 mi
7:00 AM53 °FPassing clouds.2 mph94%30.11 "Hg25 mi
5:00 AM52 °FPassing clouds.1 mph93%30.09 "Hg25 mi
4:00 AM54 °FPassing clouds.1 mph89%30.07 "Hg28 mi
2:00 AM57 °FOvercast.1 mph85%30.06 "Hg28 mi
1:00 AM59 °FOvercast.1 mph79%30.04 "Hg28 mi
11:00 PM
Sat, Aug 1
65 °FOvercast.5 mph63%30.02 "Hg34 mi
10:00 PM67 °FOvercast.2 mph56%29.99 "Hg34 mi
8:00 PM76 °FScattered clouds.3 mph29%29.93 "Hg37 mi
7:00 PM76 °FScattered clouds.3 mph31%29.92 "Hg37 mi
6:00 PM77 °FScattered clouds.2 mph28%29.92 "Hg37 mi
Weather by CustomWeather, © 2015

See weather overviewHow to use our weather pages